Theta_e
308 309 307 308 307 306 304 303 300 295 297 301 301 302 303 302 303 305 305 301 302 303 303 302 302 302 303 303 303 304 303 302 302 303 303 304 305 306
307 307 306 305 302 302 302 301 302 302 298 301 301 302 303 302 303 303 303 297 300 300 301 301 301 301 301 302 302 302 301 301 301 301 301 302 302 304
303 303 303 301 301 301 303 304 304 304 300 302 303 303 302 303 303 302 301 300 300 298 300 300 300 300 300 300 301 301 301 301 300 300 300 300 300 300
302 301 300 301 302 305 304 303 303 303 301 299 301 300 300 301 300 299 298 297 298 298 297 297 298 298 298 298 298 299 299 299 298 298 298 298 299 299
300 299 300 302 302 302 302 301 301 300 301 299 298 299 298 298 297 297 297 296 295 294 295 295 296 296 296 297 297 298 298 297 296 296 296 297 297 298
301 303 303 302 301 300 299 299 298 298 297 296 296 296 296 296 295 293 293 294 293 293 293 293 294 295 296 297 297 297 296 295 296 296 296 296 296 296
300 300 300 299 298 299 297 297 296 296 295 294 293 293 292 292 291 293 290 292 292 293 291 292 292 292 293 294 294 295 295 295 295 296 296 296 295 295
297 296 296 294 295 296 296 296 297 295 294 293 292 291 291 292 292 291 290 288 286 292 289 289 291 291 292 293 293 293 293 294 294 294 295 295 294 294
296 296 294 294 295 296 297 298 296 296 295 294 292 292 292 293 292 291 290 289 288 290 289 287 290 289 291 291 292 292 293 293 293 293 294 294 293 293
296 296 295 294 294 293 293 292 293 295 297 296 296 296 296 295 294 293 291 290 290 290 291 285 289 288 290 291 292 292 292 292 292 293 293 293 292 292
294 293 293 292 292 293 291 291 291 292 293 293 293 293 293 293 293 292 289 288 286 287 290 287 288 287 288 288 290 290 290 290 290 291 293 292 292 291
292 292 292 290 291 293 292 292 289 290 290 290 290 290 291 291 291 292 291 288 287 285 289 287 286 286 283 287 288 288 288 289 289 290 291 291 290 289
290 288 289 293 294 294 294 292 290 290 289 290 290 290 290 290 290 291 291 290 287 285 289 288 286 285 285 284 286 287 287 287 287 289 289 289 289 288
290 291 293 293 292 293 293 293 292 291 291 290 289 288 288 288 289 289 290 290 291 289 290 290 285 286 284 283 282 285 286 287 287 286 287 288 288 288
292 292 291 290 291 292 292 292 292 291 290 288 286 286 287 288 288 287 289 288 288 288 288 289 286 286 285 282 281 283 283 285 286 286 287 285 284 284
288 289 289 289 288 289 289 289 290 290 288 286 286 286 287 285 284 285 283 283 283 283 287 287 286 285 283 283 283 282 283 282 285 285 285 284 284 283
290 290 289 288 288 288 288 288 288 287 286 286 285 284 283 283 282 284 282 282 281 281 283 285 286 285 284 283 281 282 283 284 285 285 284 282 283 284
288 286 286 286 285 285 285 285 286 286 286 285 284 284 282 281 280 281 281 281 281 281 281 282 281 281 282 284 284 282 284 283 283 284 284 282 282 284
285 285 284 284 284 284 284 285 284 285 285 284 283 283 281 280 279 279 279 280 281 280 281 282 280 278 277 276 283 285 281 282 283 283 283 283 281 282
284 283 283 283 283 283 283 283 284 284 283 283 282 281 280 280 279 279 280 281 281 280 279 281 280 279 278 277 278 281 284 282 282 282 281 282 282 285
282 282 282 282 282 283 283 283 283 282 282 282 281 281 281 280 280 280 280 281 280 280 279 279 281 282 282 281 277 279 283 284 283 281 281 280 279 280
281 281 281 281 282 282 283 283 282 281 281 281 281 280 279 281 280 280 280 280 279 279 279 280 280 279 278 277 276 278 280 282 283 283 283 283 280 277
280 280 281 281 281 282 282 282 281 281 281 280 280 280 281 280 281 280 281 279 278 277 277 277 279 279 278 278 278 279 279 279 281 280 282 283 283 284
Wind_Speed
5 5 4 3 2 2 2 1 3 4 5 5 4 4 3 3 3 3 3 1 5 5 6 5 5 6 9 10 10 9 9 10 11 12 13 14 15 16
3 5 4 2 3 1 2 1 0 1 2 2 4 4 5 3 3 5 4 3 4 5 5 5 6 8 10 11 11 11 10 11 11 12 14 15 15 16
4 3 5 3 3 3 3 3 3 3 4 3 2 3 4 5 4 4 3 4 4 5 6 7 9 11 11 11 12 13 12 13 13 14 15 15 16 17
5 5 5 3 4 6 5 5 4 4 4 5 3 3 4 4 4 5 4 3 5 3 8 10 12 13 13 13 13 14 13 12 14 16 16 17 18 18
8 6 5 7 8 6 6 6 5 3 4 3 3 1 2 3 3 4 4 4 5 5 9 12 14 14 14 13 13 13 11 13 15 16 17 18 18 19
6 7 8 9 8 7 6 6 5 5 4 4 4 4 3 3 3 4 4 4 5 5 6 10 11 12 12 10 11 11 12 15 17 18 18 19 19 19
7 7 7 6 4 4 4 6 6 5 4 5 5 3 3 4 4 1 3 5 6 6 5 4 5 5 7 10 10 13 15 17 19 19 20 19 19 19
8 6 6 6 6 8 8 4 4 6 7 5 4 5 7 5 3 4 5 4 4 4 4 6 6 7 7 7 12 14 17 19 20 21 20 19 19 18
7 7 6 5 5 5 7 7 8 9 6 4 6 6 6 5 5 6 7 6 7 6 5 8 6 8 7 7 11 15 18 21 22 21 20 17 17 17
6 6 6 6 5 4 5 5 4 4 6 7 7 8 6 6 6 6 7 7 7 7 6 8 7 9 8 8 15 17 19 16 16 17 19 15 15 18
4 4 4 4 6 6 3 2 5 5 5 6 7 7 7 8 8 4 6 6 7 7 6 6 7 10 8 10 8 10 12 15 19 20 17 13 17 20
5 4 4 3 5 6 6 7 8 7 5 5 5 7 7 5 6 7 7 7 7 8 6 7 8 8 7 8 4 8 8 14 18 18 17 17 19 10
2 2 3 8 11 12 12 7 7 3 5 5 4 4 5 5 5 6 7 7 7 10 9 4 4 8 6 8 7 8 9 9 9 11 14 16 16 14
3 3 5 8 7 7 7 8 8 7 6 5 5 6 6 6 6 6 8 8 8 11 9 9 4 6 6 8 9 8 8 8 7 8 8 11 15 16
4 3 2 4 6 7 10 8 8 5 5 6 6 6 5 5 7 7 7 9 8 9 8 9 6 6 5 7 9 9 9 7 8 8 6 6 8 6
1 2 2 3 5 5 4 5 5 5 5 6 6 6 5 5 6 6 6 6 6 7 6 7 6 6 7 7 8 9 8 7 6 7 7 7 8 7
3 3 3 4 5 5 5 6 5 5 6 6 6 6 6 6 6 6 6 6 6 7 6 3 4 5 7 9 8 8 9 8 6 6 7 8 8 8
5 6 6 6 6 7 7 7 7 8 7 6 5 6 6 6 6 6 6 7 7 6 5 5 5 5 6 8 14 9 7 7 6 6 7 8 7 6
7 7 6 7 7 6 6 6 7 6 4 4 5 5 6 6 7 6 5 6 5 5 5 4 4 6 7 7 5 13 8 7 7 8 7 6 7 8
6 6 6 6 6 6 6 6 6 6 5 5 5 6 5 6 6 6 6 6 4 4 5 5 5 6 6 7 7 8 12 8 7 8 6 4 8 14
5 6 6 6 6 6 6 5 5 6 6 6 5 5 5 5 6 6 6 8 7 5 6 5 4 5 5 5 7 8 5 7 9 7 6 5 7 6
6 6 6 6 6 6 6 6 5 6 6 5 4 4 5 6 6 6 5 4 4 4 6 6 5 5 4 5 8 11 8 6 6 11 14 13 5 4
6 7 6 7 6 7 6 6 6 6 5 5 5 5 6 5 4 4 3 4 4 4 5 6 5 5 6 7 10 8 10 7 6 6 6 5 10 15
Wind_Direction
167 170 155 172 163 117 87 143 155 175 197 176 168 177 149 167 144 214 249 147 288 290 283 281 291 297 298 292 289 293 305 309 309 309 308 305 302 300
143 176 170 157 120 126 105 199 320 244 179 155 185 166 177 197 168 248 255 266 230 276 271 280 285 281 278 279 280 280 289 297 296 302 304 305 305 306
136 175 193 164 145 154 184 193 198 213 239 140 191 168 205 230 232 238 245 257 244 216 250 270 278 277 277 283 288 284 284 289 292 298 300 302 302 302
189 198 176 175 180 191 189 192 213 211 230 243 142 200 221 213 245 240 235 239 265 251 273 276 277 278 277 283 285 283 282 285 292 297 297 297 298 298
191 177 180 191 197 190 189 191 196 201 219 239 232 216 244 249 242 246 257 257 264 270 267 279 281 284 285 285 281 275 277 291 293 293 293 291 292 294
186 203 204 204 196 193 198 205 182 198 202 216 231 236 230 212 254 267 260 226 266 280 274 270 288 285 281 281 277 265 280 290 290 290 288 288 288 292
192 197 206 198 203 199 188 196 194 202 207 216 229 219 224 219 235 237 263 291 293 273 284 270 292 285 280 280 272 266 280 295 289 289 287 288 288 291
181 181 181 176 190 203 206 208 201 207 216 216 215 222 236 248 257 254 265 265 299 155 272 277 285 278 288 286 292 297 291 290 289 289 286 284 290 287
176 181 173 183 187 195 203 213 213 217 243 234 243 234 254 243 245 258 254 255 264 281 282 284 287 283 278 284 285 290 290 292 292 287 283 284 284 294
174 178 179 167 179 180 175 185 222 219 228 222 238 262 266 274 249 265 280 290 281 268 255 273 277 285 287 291 289 291 296 304 310 299 280 275 294 299
141 135 149 153 150 168 175 205 236 234 220 232 250 269 263 250 247 261 260 264 278 273 256 258 290 294 298 295 294 305 295 297 310 308 277 292 302 306
137 128 137 155 194 199 227 233 237 240 220 230 223 224 234 244 248 255 265 268 275 279 260 259 266 290 292 283 286 302 301 300 306 301 294 300 303 297
151 159 195 218 223 226 229 231 237 250 240 253 258 264 262 265 270 268 263 258 258 256 269 247 252 275 248 282 284 304 309 303 301 301 297 299 302 296
186 197 230 231 239 229 230 241 232 234 255 260 260 270 286 294 292 283 276 271 265 268 277 271 264 238 255 283 294 302 294 286 285 278 287 292 299 300
231 236 238 227 231 233 236 239 236 239 250 259 274 283 289 294 298 286 274 273 268 265 263 250 237 249 264 275 284 287 292 296 290 281 280 295 296 299
187 203 231 245 247 265 250 234 243 243 253 264 274 284 296 291 284 286 281 280 284 281 243 234 236 247 263 262 271 284 288 279 276 279 286 287 286 283
293 262 255 245 251 250 252 254 250 245 241 252 265 269 270 278 278 283 275 271 261 277 277 201 200 258 267 267 269 268 268 276 288 293 291 285 287 289
273 267 266 261 259 260 258 257 247 244 242 251 257 260 265 260 270 278 278 264 265 268 273 282 286 291 270 243 228 261 275 286 291 292 288 283 284 296
260 264 263 265 264 262 262 259 257 251 256 244 254 263 259 261 272 276 269 268 248 253 272 284 265 275 282 284 289 214 271 280 283 289 284 280 290 290
261 264 263 262 261 260 258 256 257 253 241 252 258 252 251 259 263 253 256 264 243 258 274 274 257 262 273 288 297 293 284 276 275 285 292 290 282 276
258 258 259 263 265 261 258 257 260 260 261 258 245 249 261 257 263 265 262 251 238 252 274 285 288 316 301 285 270 276 291 236 262 273 280 275 289 300
267 264 265 266 265 263 256 249 248 253 261 261 254 247 255 257 259 263 245 234 248 278 293 304 299 283 272 266 283 292 292 309 297 261 255 258 277 285
268 268 271 270 270 265 258 250 250 259 256 247 251 245 248 244 242 258 252 227 241 258 271 281 288 282 278 276 280 283 291 291 297 303 291 265 264 263